TimeEDT,TemperatureF,Dew PointF,Humidity,Sea Level PressureIn,VisibilityMPH,Wind Direction,Wind SpeedMPH,Gust SpeedMPH,PrecipitationIn,Events,Conditions,WindDirDegrees,DateUTC
12:53 AM,46.9,44.1,90,29.90,4.0,Variable,4.6,-,0.06,Rain,Light Rain,0,2013-05-25 04:53:00
1:06 AM,46.4,44.6,93,29.89,5.0,North,3.5,-,0.01,Rain,Light Rain,350,2013-05-25 05:06:00
1:53 AM,46.0,44.1,93,29.88,4.0,North,3.5,-,0.07,Rain,Light Rain,350,2013-05-25 05:53:00
2:51 AM,46.4,44.6,93,29.88,4.0,NNW,4.6,-,0.10,Rain,Light Rain,340,2013-05-25 06:51:00
2:53 AM,46.0,44.1,93,29.88,4.0,NNW,4.6,-,0.10,Rain,Light Rain,340,2013-05-25 06:53:00
3:53 AM,46.0,44.1,93,29.87,4.0,North,6.9,-,0.08,Rain,Light Rain,360,2013-05-25 07:53:00
4:04 AM,46.4,42.8,87,29.87,8.0,North,10.4,-,0.01,Rain,Light Rain,360,2013-05-25 08:04:00
4:53 AM,46.0,42.1,86,29.85,10.0,North,9.2,18.4,0.02,,Overcast,10,2013-05-25 08:53:00
5:37 AM,46.4,42.8,87,29.86,3.0,North,8.1,-,0.01,Rain,Light Rain,10,2013-05-25 09:37:00
5:53 AM,45.0,42.1,90,29.86,3.0,North,10.4,-,0.02,Rain,Light Rain,360,2013-05-25 09:53:00
6:00 AM,44.6,42.8,93,29.85,4.0,North,8.1,-,0.00,Rain,Light Rain,360,2013-05-25 10:00:00
6:20 AM,44.6,42.8,93,29.85,3.0,North,11.5,-,0.01,Rain,Light Rain,360,2013-05-25 10:20:00
6:53 AM,46.0,42.1,86,29.86,5.0,North,8.1,-,0.02,Rain,Light Rain,10,2013-05-25 10:53:00
7:53 AM,46.0,42.1,86,29.85,10.0,North,10.4,19.6,0.02,Rain,Light Rain,10,2013-05-25 11:53:00
8:53 AM,46.0,43.0,89,29.86,4.0,North,8.1,-,0.06,Rain,Light Rain,360,2013-05-25 12:53:00
9:53 AM,46.9,43.0,86,29.84,9.0,North,9.2,18.4,0.05,Rain,Light Rain,350,2013-05-25 13:53:00
10:53 AM,46.0,43.0,89,29.84,4.0,North,9.2,-,0.06,Rain,Light Rain,350,2013-05-25 14:53:00
11:15 AM,46.4,42.8,87,29.84,6.0,North,6.9,-,0.02,Rain,Light Rain,350,2013-05-25 15:15:00
11:21 AM,46.4,42.8,87,29.84,6.0,North,8.1,-,0.03,Rain,Light Rain,350,2013-05-25 15:21:00
11:53 AM,46.0,42.1,86,29.85,5.0,North,13.8,19.6,0.06,Rain,Light Rain,360,2013-05-25 15:53:00
12:49 PM,44.6,42.8,93,29.83,5.0,North,9.2,-,0.05,Rain,Light Rain,350,2013-05-25 16:49:00
12:53 PM,44.1,41.0,89,29.84,5.0,North,12.7,19.6,0.05,Rain,Light Rain,350,2013-05-25 16:53:00
1:21 PM,44.6,41.0,87,29.83,7.0,North,16.1,25.3,0.01,Rain,Light Rain,360,2013-05-25 17:21:00
1:53 PM,45.0,39.9,82,29.84,10.0,North,12.7,24.2,0.01,,Overcast,350,2013-05-25 17:53:00
2:53 PM,43.0,37.9,82,29.85,5.0,North,17.3,24.2,0.01,Rain,Light Rain,350,2013-05-25 18:53:00
3:16 PM,42.8,37.4,81,29.84,2.5,North,9.2,23.0,0.03,Rain,Light Rain,350,2013-05-25 19:16:00
3:24 PM,42.8,37.4,81,29.84,3.0,North,13.8,24.2,0.05,Rain,Light Rain,360,2013-05-25 19:24:00
3:53 PM,42.1,37.9,85,29.85,10.0,North,10.4,19.6,0.06,,Overcast,350,2013-05-25 19:53:00
4:53 PM,42.1,37.0,82,29.84,6.0,North,12.7,23.0,0.01,Rain,Light Rain,360,2013-05-25 20:53:00
5:53 PM,42.1,37.0,82,29.85,10.0,North,13.8,20.7,0.01,Rain,Light Rain,350,2013-05-25 21:53:00
6:53 PM,42.1,36.0,79,29.85,10.0,NNW,12.7,18.4,0.01,Rain,Light Rain,340,2013-05-25 22:53:00
7:53 PM,42.1,37.0,82,29.85,10.0,North,10.4,18.4,0.00,,Overcast,350,2013-05-25 23:53:00
8:53 PM,41.0,36.0,82,29.85,10.0,North,6.9,17.3,0.01,Rain,Light Rain,350,2013-05-26 00:53:00
9:44 PM,39.2,35.6,87,29.85,10.0,NNW,11.5,17.3,0.00,Rain,Light Rain,340,2013-05-26 01:44:00
9:53 PM,37.9,35.1,89,29.86,9.0,NNW,8.1,-,0.01,Rain,Light Rain,330,2013-05-26 01:53:00
10:12 PM,37.4,35.6,93,29.85,7.0,NNW,6.9,-,0.03,Rain,Light Rain,340,2013-05-26 02:12:00
10:53 PM,36.0,34.0,93,29.85,6.0,NW,9.2,-,0.11,Snow,Light Snow,320,2013-05-26 02:53:00
11:53 PM,37.0,35.1,93,29.83,10.0,NW,5.8,-,0.04,Rain,Light Rain,310,2013-05-26 03:53:00